| time (UTC) | temp C | wind direction | speed KPH | gust KPH | rain 1hr cm | rain 24hr cm | rain mn cm | humidity % | barometer mb |
| 20260507170127 | 17 | 222 | 0.0 | 0.0 | 0.00 | 0.00 | 0.00 | 40 | 1010.2 |
| 20260507165622 | 17 | 225 | 3.2 | 3.2 | 0.00 | 0.00 | 0.00 | 37 | 1010.4 |
| 20260507165119 | 17 | 228 | 1.6 | 1.6 | 0.00 | 0.00 | 0.00 | 38 | 1010.4 |
| 20260507164615 | 18 | 254 | 3.2 | 4.8 | 0.00 | 0.00 | 0.00 | 37 | 1010.2 |
| 20260507164112 | 16 | 226 | 0.0 | 1.6 | 0.00 | 0.00 | 0.00 | 42 | 1010.4 |
| 20260507163610 | 16 | 227 | 0.0 | 0.0 | 0.00 | 0.00 | 0.00 | 41 | 1010.7 |
| 20260507163108 | 17 | 196 | 3.2 | 3.2 | 0.00 | 0.00 | 0.00 | 38 | 1010.7 |
| 20260507162607 | 16 | 224 | 1.6 | 1.6 | 0.00 | 0.00 | 0.00 | 38 | 1010.8 |
| 20260507162105 | 16 | 229 | 3.2 | 3.2 | 0.00 | 0.00 | 0.00 | 39 | 1010.9 |
| 20260507161600 | 15 | 222 | 1.6 | 3.2 | 0.00 | 0.00 | 0.00 | 45 | 1010.9 |
| 20260507161057 | 15 | 223 | 0.0 | 1.6 | 0.00 | 0.00 | 0.00 | 46 | 1010.7 |
| 20260507160554 | 15 | 217 | 0.0 | 1.6 | 0.00 | 0.00 | 0.00 | 51 | 1010.9 |
| 20260507160050 | 13 | 233 | 0.0 | 0.0 | 0.00 | 0.00 | 0.00 | 51 | 1011.0 |
| 20260507155545 | 13 | 232 | 0.0 | 1.6 | 0.00 | 0.00 | 0.00 | 54 | 1011.2 |
| 20260507155043 | 12 | 334 | 4.8 | 4.8 | 0.00 | 0.00 | 0.00 | 54 | 1011.1 |
| 20260507154540 | 13 | 228 | 0.0 | 0.0 | 0.00 | 0.00 | 0.00 | 62 | 1011.1 |
| 20260507154038 | 13 | 222 | 0.0 | 0.0 | 0.00 | 0.00 | 0.00 | 58 | 1011.1 |
| 20260507153534 | 12 | 232 | 0.0 | 0.0 | 0.00 | 0.00 | 0.00 | 60 | 1011.2 |
| 20260507153030 | 11 | 166 | 1.6 | 3.2 | 0.00 | 0.00 | 0.00 | 64 | 1011.3 |
| 20260507152526 | 11 | 214 | 0.0 | 0.0 | 0.00 | 0.00 | 0.00 | 66 | 1011.2 |
| 20260507152022 | 12 | 224 | 0.0 | 0.0 | 0.00 | 0.00 | 0.00 | 63 | 1011.3 |
| 20260507151518 | 13 | 225 | 0.0 | 0.0 | 0.00 | 0.00 | 0.00 | 61 | 1011.2 |
| 20260507151016 | 13 | 226 | 0.0 | 0.0 | 0.00 | 0.00 | 0.00 | 69 | 1011.2 |
| 20260507150512 | 11 | 229 | 0.0 | 0.0 | 0.00 | 0.00 | 0.00 | 81 | 1011.5 |
| 20260507150009 | 10 | 227 | 1.6 | 1.6 | 0.00 | 0.00 | 0.00 | 97 | 1011.2 |
| 20260507145504 | 9 | 23 | 1.6 | 3.2 | 0.00 | 0.00 | 0.00 | 99 | 1011.4 |
| 20260507145001 | 9 | 235 | 0.0 | 0.0 | 0.00 | 0.00 | 0.00 | 99 | 1011.6 |
| 20260507144458 | 7 | 226 | 0.0 | 0.0 | 0.00 | 0.00 | 0.00 | 99 | 1011.8 |
| 20260507143955 | 7 | 215 | 0.0 | 1.6 | 0.00 | 0.00 | 0.00 | 99 | 1011.6 |
| 20260507143453 | 7 | 226 | 0.0 | 0.0 | 0.00 | 0.00 | 0.00 | 99 | 1011.6 |
| 20260507142949 | 7 | 226 | 0.0 | 0.0 | 0.00 | 0.00 | 0.00 | 99 | 1011.7 |
| 20260507142445 | 7 | 224 | 0.0 | 0.0 | 0.00 | 0.00 | 0.00 | 99 | 1011.6 |
| 20260507141943 | 7 | 227 | 0.0 | 0.0 | 0.00 | 0.00 | 0.00 | 99 | 1011.6 |
| 20260507141438 | 8 | 226 | 0.0 | 0.0 | 0.00 | 0.00 | 0.00 | 99 | 1011.4 |
| 20260507140935 | 8 | 226 | 0.0 | 0.0 | 0.00 | 0.00 | 0.00 | 99 | 1011.8 |
| 20260507140432 | 8 | 229 | 0.0 | 0.0 | 0.00 | 0.00 | 0.00 | 99 | 1011.5 |
| 20260507135930 | 8 | 207 | 0.0 | 0.0 | 0.00 | 0.00 | 0.00 | 99 | 1011.5 |
| 20260507135426 | 9 | 205 | 0.0 | 0.0 | 0.00 | 0.00 | 0.00 | 99 | 1011.6 |
| 20260507134925 | 9 | 235 | 0.0 | 0.0 | 0.00 | 0.00 | 0.00 | 99 | 1011.5 |
| 20260507134421 | 8 | 228 | 0.0 | 0.0 | 0.00 | 0.00 | 0.00 | 99 | 1011.5 |
| 20260507133917 | 8 | 228 | 0.0 | 0.0 | 0.00 | 0.00 | 0.00 | 99 | 1011.6 |
| 20260507133413 | 8 | 227 | 0.0 | 0.0 | 0.00 | 0.00 | 0.00 | 99 | 1011.7 |
| 20260507132911 | 8 | 226 | 0.0 | 0.0 | 0.00 | 0.00 | 0.00 | 99 | 1011.6 |
| 20260507132407 | 7 | 228 | 0.0 | 0.0 | 0.00 | 0.00 | 0.00 | 99 | 1011.7 |
| 20260507131905 | 8 | 222 | 0.0 | 0.0 | 0.00 | 0.00 | 0.00 | 99 | 1011.8 |
| 20260507131400 | 8 | 225 | 0.0 | 0.0 | 0.00 | 0.00 | 0.00 | 99 | 1011.9 |
| 20260507130857 | 7 | 226 | 0.0 | 0.0 | 0.00 | 0.00 | 0.00 | 99 | 1011.9 |
| 20260507130354 | 7 | 222 | 0.0 | 0.0 | 0.00 | 0.00 | 0.00 | 99 | 1012.0 |
| 20260507125853 | 7 | 222 | 0.0 | 0.0 | 0.00 | 0.00 | 0.00 | 99 | 1011.7 |
| 20260507125350 | 7 | 222 | 0.0 | 0.0 | 0.00 | 0.00 | 0.00 | 99 | 1011.9 |
| 20260507124848 | 7 | 222 | 0.0 | 0.0 | 0.00 | 0.00 | 0.00 | 99 | 1012.0 |
| 20260507124344 | 7 | 222 | 0.0 | 0.0 | 0.00 | 0.00 | 0.00 | 99 | 1012.4 |
| 20260507123843 | 7 | 222 | 0.0 | 0.0 | 0.00 | 0.00 | 0.00 | 99 | 1011.9 |
| 20260507123339 | 6 | 223 | 0.0 | 0.0 | 0.00 | 0.00 | 0.00 | 99 | 1012.1 |
| 20260507122836 | 7 | 223 | 0.0 | 0.0 | 0.00 | 0.00 | 0.00 | 99 | 1012.0 |
| 20260507122331 | 7 | 226 | 0.0 | 0.0 | 0.00 | 0.00 | 0.00 | 99 | 1011.8 |
| 20260507121828 | 6 | 229 | 0.0 | 0.0 | 0.00 | 0.00 | 0.00 | 99 | 1011.7 |
| 20260507121323 | 6 | 223 | 0.0 | 0.0 | 0.00 | 0.00 | 0.00 | 99 | 1012.0 |
| 20260507120820 | 6 | 223 | 0.0 | 0.0 | 0.00 | 0.00 | 0.00 | 99 | 1011.7 |
| 20260507120316 | 6 | 223 | 0.0 | 0.0 | 0.00 | 0.00 | 0.00 | 99 | 1011.8 |
| 20260507115812 | 6 | 223 | 0.0 | 0.0 | 0.00 | 0.00 | 0.00 | 99 | 1011.9 |
| 20260507115308 | 5 | 223 | 0.0 | 0.0 | 0.00 | 0.00 | 0.00 | 99 | 1011.8 |
| 20260507114804 | 5 | 223 | 0.0 | 0.0 | 0.00 | 0.00 | 0.00 | 99 | 1012.0 |
| 20260507114301 | 5 | 223 | 0.0 | 1.6 | 0.00 | 0.00 | 0.00 | 99 | 1011.9 |
| 20260507113800 | 5 | 223 | 0.0 | 0.0 | 0.00 | 0.00 | 0.00 | 99 | 1012.1 |
| 20260507113256 | 5 | 222 | 0.0 | 0.0 | 0.00 | 0.00 | 0.00 | 99 | 1012.0 |
| 20260507112754 | 5 | 222 | 0.0 | 0.0 | 0.00 | 0.00 | 0.00 | 99 | 1011.9 |
| 20260507112251 | 5 | 222 | 0.0 | 0.0 | 0.00 | 0.00 | 0.00 | 99 | 1011.8 |
| 20260507111749 | 4 | 222 | 0.0 | 0.0 | 0.00 | 0.00 | 0.00 | 99 | 1011.8 |
| 20260507111244 | 3 | 221 | 0.0 | 0.0 | 0.00 | 0.00 | 0.00 | 99 | 1012.1 |
| 20260507110741 | 3 | 221 | 0.0 | 0.0 | 0.00 | 0.00 | 0.00 | 99 | 1011.9 |
| 20260507110237 | 3 | 222 | 0.0 | 0.0 | 0.00 | 0.00 | 0.00 | 99 | 1012.0 |
| 20260507105734 | 3 | 222 | 0.0 | 1.6 | 0.00 | 0.00 | 0.00 | 99 | 1012.1 |
| 20260507105230 | 3 | 222 | 0.0 | 0.0 | 0.00 | 0.00 | 0.00 | 99 | 1012.2 |
| 20260507104727 | 2 | 222 | 0.0 | 0.0 | 0.00 | 0.00 | 0.00 | 99 | 1012.2 |
| 20260507104224 | 2 | 222 | 0.0 | 0.0 | 0.00 | 0.00 | 0.00 | 99 | 1012.4 |
| 20260507103720 | 2 | 222 | 0.0 | 0.0 | 0.00 | 0.00 | 0.00 | 99 | 1011.8 |
| 20260507103216 | 2 | 222 | 0.0 | 0.0 | 0.00 | 0.00 | 0.00 | 99 | 1011.8 |
| 20260507102713 | 2 | 222 | 0.0 | 0.0 | 0.00 | 0.00 | 0.00 | 99 | 1011.7 |
| 20260507102209 | 2 | 222 | 0.0 | 0.0 | 0.00 | 0.00 | 0.00 | 99 | 1011.6 |
| 20260507101706 | 2 | 222 | 0.0 | 0.0 | 0.00 | 0.00 | 0.00 | 99 | 1011.6 |
| 20260507101201 | 1 | 222 | 0.0 | 0.0 | 0.00 | 0.00 | 0.00 | 99 | 1011.6 |
| 20260507100658 | 1 | 222 | 0.0 | 0.0 | 0.00 | 0.00 | 0.00 | 99 | 1011.7 |
| 20260507100157 | 1 | 222 | 0.0 | 0.0 | 0.00 | 0.00 | 0.00 | 99 | 1011.9 |
| 20260507095654 | 1 | 222 | 0.0 | 0.0 | 0.00 | 0.00 | 0.00 | 99 | 1012.0 |
| 20260507095151 | 1 | 222 | 0.0 | 0.0 | 0.00 | 0.00 | 0.00 | 99 | 1011.7 |
| 20260507094647 | 2 | 222 | 0.0 | 0.0 | 0.00 | 0.00 | 0.00 | 99 | 1011.6 |
| 20260507094144 | 2 | 222 | 0.0 | 0.0 | 0.00 | 0.00 | 0.00 | 99 | 1011.7 |
| 20260507093642 | 2 | 222 | 0.0 | 0.0 | 0.00 | 0.00 | 0.00 | 99 | 1011.7 |
| 20260507093141 | 2 | 222 | 0.0 | 0.0 | 0.00 | 0.00 | 0.00 | 99 | 1012.0 |
| 20260507092637 | 2 | 222 | 0.0 | 0.0 | 0.00 | 0.00 | 0.00 | 99 | 1011.9 |
| 20260507092133 | 2 | 222 | 0.0 | 0.0 | 0.00 | 0.00 | 0.00 | 99 | 1012.0 |
| 20260507091630 | 2 | 222 | 0.0 | 0.0 | 0.00 | 0.00 | 0.00 | 99 | 1011.9 |
| 20260507091125 | 2 | 222 | 0.0 | 0.0 | 0.00 | 0.00 | 0.00 | 99 | 1011.8 |
| 20260507090621 | 2 | 222 | 0.0 | 0.0 | 0.00 | 0.00 | 0.00 | 99 | 1011.9 |
| 20260507090119 | 2 | 222 | 0.0 | 0.0 | 0.00 | 0.00 | 0.00 | 99 | 1011.8 |
| 20260507085616 | 3 | 222 | 0.0 | 0.0 | 0.00 | 0.00 | 0.00 | 99 | 1011.6 |
| 20260507085112 | 3 | 221 | 0.0 | 0.0 | 0.00 | 0.00 | 0.00 | 99 | 1011.9 |
| 20260507084609 | 3 | 221 | 0.0 | 0.0 | 0.00 | 0.00 | 0.00 | 99 | 1011.8 |
| 20260507084106 | 3 | 221 | 0.0 | 0.0 | 0.00 | 0.00 | 0.00 | 99 | 1011.6 |
| 20260507083602 | 3 | 221 | 0.0 | 0.0 | 0.00 | 0.00 | 0.00 | 99 | 1011.6 |
| 20260507083100 | 3 | 222 | 0.0 | 0.0 | 0.00 | 0.00 | 0.00 | 99 | 1011.5 |
| 20260507082555 | 3 | 222 | 0.0 | 0.0 | 0.00 | 0.00 | 0.00 | 99 | 1011.8 |
| 20260507082052 | 3 | 221 | 0.0 | 0.0 | 0.00 | 0.00 | 0.00 | 99 | 1011.9 |
| 20260507081548 | 3 | 222 | 0.0 | 0.0 | 0.00 | 0.00 | 0.00 | 99 | 1011.8 |
| 20260507081046 | 3 | 221 | 0.0 | 0.0 | 0.00 | 0.00 | 0.00 | 99 | 1011.8 |
| 20260507080541 | 3 | 221 | 0.0 | 0.0 | 0.00 | 0.00 | 0.00 | 99 | 1011.5 |
| 20260507080038 | 4 | 221 | 0.0 | 0.0 | 0.00 | 0.00 | 0.00 | 99 | 1011.7 |
| 20260507075533 | 4 | 221 | 0.0 | 0.0 | 0.00 | 0.00 | 0.00 | 99 | 1011.5 |
| 20260507075030 | 4 | 222 | 0.0 | 0.0 | 0.00 | 0.00 | 0.00 | 99 | 1011.5 |
| 20260507074526 | 5 | 222 | 0.0 | 0.0 | 0.00 | 0.00 | 0.00 | 99 | 1011.4 |
| 20260507074025 | 5 | 222 | 0.0 | 0.0 | 0.00 | 0.00 | 0.00 | 99 | 1011.0 |
| 20260507073521 | 5 | 222 | 0.0 | 0.0 | 0.00 | 0.00 | 0.00 | 99 | 1011.2 |
| 20260507073018 | 5 | 222 | 0.0 | 0.0 | 0.00 | 0.00 | 0.00 | 99 | 1010.8 |
| 20260507072515 | 5 | 222 | 0.0 | 0.0 | 0.00 | 0.00 | 0.00 | 99 | 1010.7 |
| 20260507072012 | 5 | 222 | 0.0 | 0.0 | 0.00 | 0.00 | 0.00 | 99 | 1010.9 |
| 20260507071509 | 5 | 222 | 0.0 | 0.0 | 0.00 | 0.00 | 0.00 | 99 | 1011.1 |
| 20260507071006 | 5 | 221 | 0.0 | 0.0 | 0.00 | 0.00 | 0.00 | 99 | 1010.7 |
| 20260507070503 | 5 | 222 | 0.0 | 0.0 | 0.00 | 0.00 | 0.00 | 99 | 1010.8 |
| 20260507070000 | 5 | 222 | 0.0 | 0.0 | 0.00 | 0.00 | 0.00 | 99 | 1010.5 |
| 20260507065456 | 5 | 222 | 0.0 | 0.0 | 0.00 | 0.00 | 0.00 | 99 | 1011.2 |
| 20260507064954 | 5 | 222 | 0.0 | 0.0 | 0.00 | 0.00 | 0.00 | 99 | 1011.0 |
| 20260507064452 | 5 | 222 | 0.0 | 0.0 | 0.00 | 0.00 | 0.00 | 99 | 1010.8 |
| 20260507063949 | 5 | 222 | 0.0 | 0.0 | 0.00 | 0.00 | 0.00 | 99 | 1011.1 |
| 20260507063446 | 5 | 222 | 0.0 | 0.0 | 0.00 | 0.00 | 0.00 | 99 | 1011.1 |
| 20260507062943 | 5 | 221 | 0.0 | 0.0 | 0.00 | 0.00 | 0.00 | 99 | 1011.1 |
| 20260507062440 | 5 | 222 | 0.0 | 0.0 | 0.00 | 0.00 | 0.00 | 99 | 1010.9 |
| 20260507061937 | 5 | 222 | 0.0 | 0.0 | 0.00 | 0.00 | 0.00 | 99 | 1010.7 |
| 20260507061436 | 5 | 222 | 0.0 | 0.0 | 0.00 | 0.00 | 0.00 | 99 | 1010.7 |
| 20260507060934 | 5 | 223 | 0.0 | 0.0 | 0.00 | 0.00 | 0.00 | 99 | 1011.5 |
| 20260507060430 | 5 | 222 | 0.0 | 0.0 | 0.00 | 0.00 | 0.00 | 99 | 1011.4 |
| 20260507055927 | 5 | 222 | 0.0 | 0.0 | 0.00 | 0.00 | 0.00 | 99 | 1011.1 |
| 20260507055423 | 5 | 225 | 0.0 | 0.0 | 0.00 | 0.00 | 0.00 | 99 | 1011.0 |
| 20260507054919 | 5 | 222 | 0.0 | 0.0 | 0.00 | 0.00 | 0.00 | 99 | 1010.7 |
| 20260507054415 | 5 | 222 | 0.0 | 0.0 | 0.00 | 0.00 | 0.00 | 99 | 1011.1 |
| 20260507053913 | 5 | 222 | 0.0 | 0.0 | 0.00 | 0.00 | 0.00 | 99 | 1011.0 |
| 20260507053410 | 5 | 222 | 0.0 | 0.0 | 0.00 | 0.00 | 0.00 | 99 | 1010.9 |
| 20260507052909 | 5 | 223 | 0.0 | 0.0 | 0.00 | 0.00 | 0.00 | 99 | 1010.8 |
| 20260507052406 | 5 | 222 | 0.0 | 1.6 | 0.00 | 0.00 | 0.00 | 99 | 1011.1 |
| 20260507051903 | 5 | 222 | 0.0 | 0.0 | 0.00 | 0.00 | 0.00 | 99 | 1011.1 |
| 20260507051400 | 5 | 219 | 0.0 | 0.0 | 0.00 | 0.00 | 0.00 | 99 | 1011.0 |
| 20260507050857 | 5 | 222 | 0.0 | 0.0 | 0.00 | 0.00 | 0.00 | 99 | 1010.8 |
| 20260507050354 | 5 | 225 | 0.0 | 0.0 | 0.00 | 0.00 | 0.00 | 99 | 1010.8 |
| 20260507045851 | 5 | 226 | 0.0 | 0.0 | 0.00 | 0.00 | 0.00 | 99 | 1010.7 |
| 20260507045348 | 5 | 222 | 0.0 | 0.0 | 0.00 | 0.00 | 0.00 | 99 | 1010.7 |
| 20260507044845 | 5 | 222 | 0.0 | 0.0 | 0.00 | 0.00 | 0.00 | 99 | 1010.8 |
| 20260507044341 | 5 | 223 | 0.0 | 0.0 | 0.00 | 0.00 | 0.00 | 99 | 1010.8 |
| 20260507043837 | 6 | 223 | 0.0 | 0.0 | 0.00 | 0.00 | 0.00 | 99 | 1010.9 |
| 20260507043334 | 6 | 223 | 0.0 | 0.0 | 0.00 | 0.00 | 0.00 | 99 | 1010.5 |
| 20260507042830 | 6 | 224 | 0.0 | 1.6 | 0.00 | 0.00 | 0.00 | 99 | 1010.4 |
| 20260507042325 | 6 | 225 | 0.0 | 0.0 | 0.00 | 0.00 | 0.00 | 99 | 1010.3 |
| 20260507041823 | 6 | 225 | 0.0 | 0.0 | 0.00 | 0.00 | 0.00 | 99 | 1010.1 |
| 20260507041319 | 6 | 225 | 0.0 | 0.0 | 0.00 | 0.00 | 0.00 | 99 | 1010.2 |
| 20260507040816 | 6 | 222 | 0.0 | 0.0 | 0.00 | 0.00 | 0.00 | 99 | 1010.4 |
| 20260507040312 | 6 | 223 | 0.0 | 0.0 | 0.00 | 0.00 | 0.00 | 99 | 1010.3 |
| 20260507035808 | 6 | 223 | 0.0 | 0.0 | 0.00 | 2.06 | 2.06 | 99 | 1010.7 |
| 20260507035306 | 6 | 221 | 0.0 | 0.0 | 0.13 | 2.06 | 2.06 | 99 | 1011.0 |
| 20260507034802 | 6 | 225 | 1.6 | 1.6 | 0.13 | 2.06 | 2.06 | 99 | 1010.8 |
| 20260507034258 | 6 | 216 | 0.0 | 0.0 | 0.13 | 2.06 | 2.06 | 99 | 1010.8 |
| 20260507033757 | 6 | 192 | 0.0 | 1.6 | 0.00 | 2.03 | 2.03 | 99 | 1011.0 |
| 20260507033254 | 6 | 222 | 0.0 | 0.0 | 0.00 | 2.03 | 2.03 | 99 | 1010.9 |
| 20260507032751 | 6 | 224 | 0.0 | 0.0 | 0.00 | 2.03 | 2.03 | 99 | 1010.9 |
| 20260507032247 | 6 | 223 | 0.0 | 0.0 | 0.00 | 2.03 | 2.03 | 99 | 1010.8 |
| 20260507031743 | 6 | 225 | 0.0 | 1.6 | 0.00 | 2.03 | 2.03 | 99 | 1011.1 |
| 20260507031241 | 6 | 223 | 0.0 | 0.0 | 0.00 | 2.03 | 2.03 | 99 | 1010.8 |
| 20260507030737 | 6 | 224 | 0.0 | 1.6 | 0.00 | 2.03 | 2.03 | 99 | 1010.8 |
| 20260507030235 | 6 | 222 | 0.0 | 0.0 | 0.00 | 2.03 | 2.03 | 99 | 1010.8 |
| 20260507025732 | 6 | 223 | 0.0 | 0.0 | 0.18 | 2.03 | 2.03 | 99 | 1010.9 |
| 20260507025229 | 6 | 233 | 3.2 | 3.2 | 0.18 | 2.03 | 2.03 | 99 | 1011.1 |
| 20260507024727 | 6 | 230 | 0.0 | 0.0 | 0.00 | 2.01 | 2.01 | 99 | 1011.2 |
| 20260507024224 | 6 | 224 | 0.0 | 0.0 | 0.00 | 2.01 | 2.01 | 99 | 1011.1 |
| 20260507023719 | 6 | 221 | 1.6 | 3.2 | 0.00 | 2.01 | 2.01 | 99 | 1011.3 |
| 20260507023216 | 6 | 224 | 0.0 | 1.6 | 0.00 | 2.01 | 2.01 | 99 | 1011.1 |
| 20260507022714 | 6 | 215 | 0.0 | 0.0 | 0.00 | 2.01 | 2.01 | 99 | 1011.1 |
| 20260507022210 | 6 | 201 | 0.0 | 0.0 | 0.00 | 2.01 | 2.01 | 99 | 1011.3 |
| 20260507021706 | 6 | 171 | 4.8 | 4.8 | 0.00 | 2.01 | 2.01 | 99 | 1011.0 |
| 20260507021201 | 7 | 228 | 0.0 | 0.0 | 0.00 | 2.01 | 2.01 | 99 | 1011.2 |
| 20260507020701 | 7 | 241 | 0.0 | 0.0 | 0.13 | 2.01 | 2.01 | 99 | 1011.0 |
| 20260507020156 | 7 | 223 | 1.6 | 1.6 | 0.13 | 2.01 | 2.01 | 99 | 1010.9 |
| 20260507015654 | 7 | 219 | 1.6 | 1.6 | 0.18 | 1.98 | 1.98 | 99 | 1010.9 |
| 20260507015151 | 7 | 225 | 0.0 | 1.6 | 0.18 | 1.98 | 1.98 | 99 | 1011.2 |
| 20260507014648 | 7 | 223 | 0.0 | 0.0 | 0.36 | 1.98 | 1.98 | 99 | 1011.0 |
| 20260507014144 | 7 | 226 | 0.0 | 0.0 | 0.18 | 1.96 | 1.96 | 99 | 1011.0 |
| 20260507013641 | 7 | 223 | 0.0 | 0.0 | 0.13 | 1.93 | 1.93 | 99 | 1010.8 |
| 20260507013138 | 7 | 223 | 0.0 | 1.6 | 0.13 | 1.93 | 1.93 | 99 | 1010.8 |
| 20260507012635 | 7 | 223 | 0.0 | 0.0 | 0.30 | 1.93 | 1.93 | 99 | 1010.7 |
| 20260507012130 | 7 | 223 | 0.0 | 0.0 | 0.48 | 1.91 | 1.91 | 99 | 1010.4 |
| 20260507011629 | 7 | 228 | 1.6 | 1.6 | 0.30 | 1.88 | 1.88 | 99 | 1010.4 |
| 20260507011125 | 7 | 231 | 1.6 | 1.6 | 0.30 | 1.85 | 1.85 | 99 | 1010.2 |
| 20260507010620 | 7 | 222 | 1.6 | 1.6 | 0.13 | 1.83 | 1.83 | 99 | 1010.2 |
| 20260507010116 | 8 | 222 | 0.0 | 0.0 | 0.18 | 1.80 | 1.80 | 99 | 1010.0 |
| 20260507005613 | 8 | 223 | 0.0 | 0.0 | 0.30 | 1.80 | 1.80 | 99 | 1010.1 |
| 20260507005109 | 8 | 225 | 0.0 | 1.6 | 0.13 | 1.78 | 1.78 | 99 | 1010.1 |
| 20260507004606 | 8 | 226 | 1.6 | 3.2 | 0.13 | 1.78 | 1.78 | 99 | 1010.0 |
| 20260507004104 | 8 | 224 | 0.0 | 0.0 | 0.00 | 1.75 | 1.75 | 99 | 1009.8 |
| 20260507003600 | 8 | 225 | 0.0 | 0.0 | 0.18 | 1.75 | 1.75 | 99 | 1009.9 |
| 20260507003055 | 8 | 226 | 1.6 | 3.2 | 0.18 | 1.75 | 1.75 | 99 | 1009.8 |
| 20260507002552 | 8 | 223 | 0.0 | 0.0 | 0.00 | 1.73 | 1.73 | 99 | 1009.7 |
| 20260507002047 | 8 | 229 | 1.6 | 3.2 | 0.00 | 1.73 | 1.73 | 99 | 1009.6 |
| 20260507001544 | 8 | 223 | 0.0 | 1.6 | 0.00 | 1.73 | 1.73 | 99 | 1009.6 |
| 20260507001042 | 8 | 224 | 0.0 | 0.0 | 0.00 | 1.73 | 1.73 | 99 | 1009.4 |
| 20260507000538 | 8 | 221 | 1.6 | 1.6 | 0.13 | 1.73 | 1.73 | 99 | 1009.2 |
| 20260507000033 | 8 | 226 | 0.0 | 1.6 | 0.13 | 1.73 | 1.73 | 99 | 1009.2 |
| 20260506235531 | 8 | 224 | 0.0 | 0.0 | 0.00 | 1.70 | 1.70 | 99 | 1009.2 |
| 20260506235027 | 8 | 224 | 0.0 | 0.0 | 0.00 | 1.70 | 1.70 | 99 | 1009.0 |
| 20260506234525 | 8 | 220 | 0.0 | 0.0 | 0.00 | 1.70 | 1.70 | 99 | 1009.0 |
| 20260506234022 | 8 | 221 | 0.0 | 0.0 | 0.00 | 1.70 | 1.70 | 99 | 1009.0 |
| 20260506233518 | 8 | 215 | 0.0 | 1.6 | 0.00 | 1.70 | 1.70 | 99 | 1008.8 |
| 20260506233015 | 8 | 227 | 1.6 | 3.2 | 0.18 | 1.70 | 1.70 | 99 | 1008.9 |
| 20260506232511 | 9 | 205 | 0.0 | 0.0 | 0.18 | 1.70 | 1.70 | 99 | 1008.9 |
| 20260506232007 | 9 | 233 | 1.6 | 3.2 | 0.00 | 1.68 | 1.68 | 99 | 1008.9 |
| 20260506231505 | 9 | 221 | 0.0 | 0.0 | 0.00 | 1.68 | 1.68 | 99 | 1008.8 |
| 20260506231002 | 9 | 224 | 1.6 | 1.6 | 0.00 | 1.68 | 1.68 | 99 | 1008.6 |
| 20260506230458 | 10 | 223 | 0.0 | 0.0 | 0.00 | 1.68 | 1.68 | 99 | 1008.6 |
| 20260506225955 | 10 | 217 | 0.0 | 0.0 | 0.00 | 1.68 | 1.68 | 99 | 1008.6 |
| 20260506225452 | 10 | 223 | 0.0 | 0.0 | 0.00 | 1.68 | 1.68 | 99 | 1008.7 |
| 20260506224948 | 10 | 220 | 0.0 | 0.0 | 0.00 | 1.68 | 1.68 | 99 | 1008.4 |
| 20260506224446 | 10 | 221 | 0.0 | 0.0 | 0.00 | 1.68 | 1.68 | 99 | 1008.2 |
| 20260506223942 | 10 | 233 | 3.2 | 4.8 | 0.00 | 1.68 | 1.68 | 99 | 1008.2 |
| 20260506223438 | 10 | 225 | 0.0 | 0.0 | 0.00 | 1.68 | 1.68 | 99 | 1008.6 |
| 20260506222935 | 11 | 233 | 1.6 | 1.6 | 0.00 | 1.68 | 1.68 | 99 | 1008.2 |
| 20260506222432 | 11 | 237 | 3.2 | 3.2 | 0.00 | 1.68 | 1.68 | 99 | 1008.3 |
| 20260506221929 | 11 | 231 | 1.6 | 3.2 | 0.00 | 1.68 | 1.68 | 99 | 1008.1 |
| 20260506221426 | 11 | 223 | 0.0 | 1.6 | 0.13 | 1.68 | 1.68 | 99 | 1007.8 |
| 20260506220924 | 12 | 220 | 0.0 | 0.0 | 0.61 | 1.68 | 1.68 | 99 | 1007.9 |
| 20260506220419 | 13 | 223 | 1.6 | 1.6 | 0.79 | 1.65 | 1.65 | 99 | 1007.9 |
| 20260506215916 | 14 | 220 | 1.6 | 1.6 | 0.61 | 1.60 | 1.60 | 99 | 1007.8 |
| 20260506215412 | 14 | 220 | 0.0 | 0.0 | 0.30 | 1.55 | 1.55 | 99 | 1007.3 |
| 20260506214908 | 14 | 219 | 0.0 | 0.0 | 0.30 | 1.50 | 1.50 | 99 | 1007.4 |
| 20260506214405 | 15 | 219 | 0.0 | 0.0 | 0.61 | 1.50 | 1.50 | 99 | 1007.4 |
| 20260506213902 | 14 | 219 | 0.0 | 0.0 | 0.61 | 1.47 | 1.47 | 99 | 1007.3 |
| 20260506213400 | 15 | 220 | 0.0 | 0.0 | 0.30 | 1.40 | 1.40 | 99 | 1007.3 |
| 20260506212857 | 15 | 220 | 0.0 | 0.0 | 0.30 | 1.37 | 1.37 | 99 | 1007.5 |
| 20260506212353 | 15 | 220 | 0.0 | 0.0 | 0.30 | 1.35 | 1.35 | 99 | 1007.6 |
| 20260506211848 | 15 | 220 | 0.0 | 0.0 | 0.61 | 1.35 | 1.35 | 99 | 1007.7 |
| 20260506211344 | 15 | 220 | 0.0 | 0.0 | 0.61 | 1.30 | 1.30 | 99 | 1007.6 |
| 20260506210842 | 15 | 224 | 0.0 | 0.0 | 0.48 | 1.24 | 1.24 | 99 | 1007.5 |
| 20260506210338 | 15 | 224 | 0.0 | 0.0 | 0.30 | 1.19 | 1.19 | 99 | 1007.4 |
| 20260506205836 | 15 | 220 | 0.0 | 0.0 | 0.13 | 1.17 | 1.17 | 99 | 1007.5 |
| 20260506205331 | 15 | 219 | 1.6 | 1.6 | 0.00 | 1.14 | 1.14 | 99 | 1007.6 |
| 20260506204828 | 15 | 224 | 0.0 | 0.0 | 0.00 | 1.14 | 1.14 | 99 | 1007.6 |
| 20260506204326 | 15 | 223 | 0.0 | 0.0 | 0.18 | 1.14 | 1.14 | 99 | 1007.5 |
| 20260506203823 | 15 | 221 | 0.0 | 0.0 | 0.18 | 1.14 | 1.14 | 99 | 1007.7 |
| 20260506203320 | 15 | 223 | 0.0 | 0.0 | 0.00 | 1.12 | 1.12 | 99 | 1007.8 |
| 20260506202817 | 15 | 222 | 0.0 | 0.0 | 0.00 | 1.12 | 1.12 | 99 | 1007.6 |
| 20260506202314 | 15 | 222 | 0.0 | 0.0 | 0.13 | 1.12 | 1.12 | 99 | 1007.7 |
| 20260506201810 | 15 | 220 | 0.0 | 0.0 | 0.13 | 1.12 | 1.12 | 99 | 1007.8 |
| 20260506201308 | 15 | 219 | 0.0 | 0.0 | 0.00 | 1.09 | 1.09 | 99 | 1008.1 |
| 20260506200805 | 15 | 219 | 0.0 | 0.0 | 0.00 | 1.09 | 1.09 | 99 | 1008.1 |
| 20260506200301 | 15 | 223 | 0.0 | 0.0 | 0.00 | 1.09 | 1.09 | 99 | 1008.0 |
| 20260506195757 | 15 | 224 | 0.0 | 0.0 | 0.00 | 1.09 | 1.09 | 99 | 1008.0 |
| 20260506195254 | 15 | 223 | 0.0 | 0.0 | 0.18 | 1.09 | 1.09 | 99 | 1008.2 |
| 20260506194751 | 15 | 223 | 0.0 | 0.0 | 0.18 | 1.09 | 1.09 | 99 | 1008.0 |
| 20260506194247 | 15 | 224 | 0.0 | 0.0 | 0.00 | 1.07 | 1.07 | 99 | 1008.3 |
| 20260506193745 | 15 | 224 | 0.0 | 0.0 | 0.00 | 1.07 | 1.07 | 99 | 1008.4 |
| 20260506193242 | 15 | 224 | 0.0 | 0.0 | 0.00 | 1.07 | 1.07 | 99 | 1008.1 |
| 20260506192738 | 15 | 224 | 0.0 | 0.0 | 0.13 | 1.07 | 1.07 | 99 | 1008.6 |
| 20260506192235 | 15 | 224 | 0.0 | 0.0 | 0.13 | 1.07 | 1.07 | 99 | 1008.4 |
| 20260506191732 | 15 | 224 | 0.0 | 0.0 | 0.18 | 1.04 | 1.04 | 99 | 1008.4 |
| 20260506191228 | 15 | 224 | 0.0 | 0.0 | 0.18 | 1.04 | 1.04 | 99 | 1008.7 |
| 20260506190725 | 15 | 224 | 0.0 | 0.0 | 0.30 | 1.04 | 1.04 | 99 | 1008.6 |
| 20260506190222 | 15 | 224 | 0.0 | 0.0 | 0.30 | 1.02 | 1.02 | 99 | 1008.7 |
| 20260506185719 | 15 | 224 | 0.0 | 0.0 | 0.36 | 0.99 | 0.99 | 99 | 1008.7 |
| 20260506185215 | 14 | 224 | 0.0 | 0.0 | 0.30 | 0.97 | 0.97 | 99 | 1008.8 |
| 20260506184713 | 14 | 226 | 0.0 | 0.0 | 0.43 | 0.94 | 0.94 | 99 | 1008.8 |
| 20260506184210 | 14 | 226 | 0.0 | 1.6 | 0.48 | 0.91 | 0.91 | 99 | 1008.8 |
| 20260506183707 | 14 | 224 | 0.0 | 0.0 | 0.48 | 0.86 | 0.86 | 99 | 1008.7 |
| 20260506183202 | 14 | 222 | 0.0 | 0.0 | 0.43 | 0.84 | 0.84 | 99 | 1008.6 |
| 20260506182700 | 14 | 221 | 0.0 | 0.0 | 0.48 | 0.81 | 0.81 | 99 | 1008.6 |
| 20260506182157 | 14 | 218 | 0.0 | 0.0 | 0.48 | 0.76 | 0.76 | 99 | 1008.7 |
| 20260506181655 | 14 | 225 | 0.0 | 0.0 | 0.61 | 0.74 | 0.74 | 99 | 1008.9 |
| 20260506181152 | 13 | 220 | 0.0 | 0.0 | 0.48 | 0.69 | 0.69 | 99 | 1009.0 |
| 20260506180649 | 13 | 214 | 0.0 | 0.0 | 0.48 | 0.64 | 0.64 | 99 | 1009.2 |
| 20260506180145 | 13 | 205 | 0.0 | 0.0 | 0.48 | 0.58 | 0.58 | 99 | 1009.3 |
| 20260506175642 | 13 | 215 | 1.6 | 1.6 | 0.43 | 0.56 | 0.56 | 99 | 1009.3 |
| 20260506175139 | 13 | 212 | 0.0 | 0.0 | 0.30 | 0.51 | 0.51 | 99 | 1009.3 |
| 20260506174631 | 13 | 202 | 0.0 | 0.0 | 0.48 | 0.48 | 0.48 | 99 | 1009.4 |
| 20260506174127 | 13 | 220 | 0.0 | 0.0 | 0.43 | 0.46 | 0.46 | 99 | 1009.6 |
| 20260506173625 | 13 | 221 | 1.6 | 3.2 | 0.30 | 0.43 | 0.43 | 99 | 1009.5 |
| 20260506173121 | 13 | 215 | 0.0 | 0.0 | 0.36 | 0.38 | 0.38 | 99 | 1009.6 |
| 20260506172619 | 13 | 217 | 0.0 | 0.0 | 0.48 | 0.38 | 0.38 | 99 | 1009.5 |
| 20260506172115 | 13 | 221 | 0.0 | 0.0 | 0.13 | 0.33 | 0.33 | 99 | 1009.5 |
| 20260506171613 | 13 | 220 | 0.0 | 0.0 | 0.18 | 0.30 | 0.30 | 99 | 1009.5 |
| 20260506171110 | 13 | 211 | 0.0 | 0.0 | 0.30 | 0.30 | 0.30 | 99 | 1009.9 |
| 20260506170607 | 13 | 206 | 0.0 | 0.0 | 0.30 | 0.28 | 0.28 | 99 | 1009.9 |